Year,Month,Day,Hour,Minute,Value (Times are PST for temperature in C)
2021,04,16,00,00,8.90
2021,04,16,00,01,8.90
2021,04,16,00,02,8.90
2021,04,16,00,03,8.90
2021,04,16,00,04,8.90
2021,04,16,00,05,8.90
2021,04,16,00,06,8.90
2021,04,16,00,07,8.90
2021,04,16,00,08,8.90
2021,04,16,00,09,8.90
2021,04,16,00,10,8.90
2021,04,16,00,11,8.80
2021,04,16,00,12,8.80
2021,04,16,00,13,8.80
2021,04,16,00,14,8.80
2021,04,16,00,15,8.80
2021,04,16,00,16,8.80
2021,04,16,00,17,8.80
2021,04,16,00,18,8.80
2021,04,16,00,19,8.80
2021,04,16,00,20,8.70
2021,04,16,00,21,8.70
2021,04,16,00,22,8.70
2021,04,16,00,23,8.70
2021,04,16,00,24,8.70
2021,04,16,00,25,8.70
2021,04,16,00,26,8.70
2021,04,16,00,27,8.70
2021,04,16,00,28,8.60
2021,04,16,00,29,8.60
2021,04,16,00,30,8.60
2021,04,16,00,31,8.60
2021,04,16,00,32,8.60
2021,04,16,00,33,8.60
2021,04,16,00,34,8.60
2021,04,16,00,35,8.60
2021,04,16,00,36,8.50
2021,04,16,00,37,8.50
2021,04,16,00,38,8.50
2021,04,16,00,39,8.50
2021,04,16,00,40,8.50
2021,04,16,00,41,8.40
2021,04,16,00,42,8.40
2021,04,16,00,43,8.40
2021,04,16,00,44,8.40
2021,04,16,00,45,8.40
2021,04,16,00,46,8.40
2021,04,16,00,47,8.40
2021,04,16,00,48,8.30
2021,04,16,00,49,8.30
2021,04,16,00,50,8.30
2021,04,16,00,51,8.30
2021,04,16,00,52,8.30
2021,04,16,00,53,8.30
2021,04,16,00,54,8.30
2021,04,16,00,55,8.30
2021,04,16,00,56,8.30
2021,04,16,00,57,8.20
2021,04,16,00,58,8.20
2021,04,16,00,59,8.20
2021,04,16,01,00,8.20
2021,04,16,01,01,8.20
2021,04,16,01,02,8.20
2021,04,16,01,03,8.20
2021,04,16,01,04,8.10
2021,04,16,01,05,8.10
2021,04,16,01,06,8.10
2021,04,16,01,07,8.10
2021,04,16,01,08,8.10
2021,04,16,01,09,8.10
2021,04,16,01,10,8.00
2021,04,16,01,11,8.00
2021,04,16,01,12,8.00
2021,04,16,01,13,8.00
2021,04,16,01,14,8.00
2021,04,16,01,15,7.90
2021,04,16,01,16,7.90
2021,04,16,01,17,7.90
2021,04,16,01,18,7.90
2021,04,16,01,19,7.90
2021,04,16,01,20,7.90
2021,04,16,01,21,7.80
2021,04,16,01,22,7.80
2021,04,16,01,23,7.80
2021,04,16,01,24,7.80
2021,04,16,01,25,7.80
2021,04,16,01,26,7.80
2021,04,16,01,27,7.70
2021,04,16,01,28,7.70
2021,04,16,01,29,7.70
2021,04,16,01,30,7.70
2021,04,16,01,31,7.70
2021,04,16,01,32,7.70
2021,04,16,01,33,7.60
2021,04,16,01,34,7.60
2021,04,16,01,35,7.60
2021,04,16,01,36,7.60
2021,04,16,01,37,7.60
2021,04,16,01,38,7.60
2021,04,16,01,39,7.50
2021,04,16,01,40,7.50
2021,04,16,01,41,7.50
2021,04,16,01,42,7.50
2021,04,16,01,43,7.50
2021,04,16,01,44,7.40
2021,04,16,01,45,7.40
2021,04,16,01,46,7.40
2021,04,16,01,47,7.40
2021,04,16,01,48,7.40
2021,04,16,01,49,7.40
2021,04,16,01,50,7.40
2021,04,16,01,51,7.40
2021,04,16,01,52,7.40
2021,04,16,01,53,7.40
2021,04,16,01,54,7.30
2021,04,16,01,55,7.30
2021,04,16,01,56,7.30
2021,04,16,01,57,7.30
2021,04,16,01,58,7.30
2021,04,16,01,59,7.30
2021,04,16,02,00,7.30
2021,04,16,02,01,7.30
2021,04,16,02,02,7.20
2021,04,16,02,03,7.20
2021,04,16,02,04,7.20
2021,04,16,02,05,7.20
2021,04,16,02,06,7.20
2021,04,16,02,07,7.20
2021,04,16,02,08,7.20
2021,04,16,02,09,7.20
2021,04,16,02,10,7.20
2021,04,16,02,11,7.20
2021,04,16,02,12,7.20
2021,04,16,02,13,7.20
2021,04,16,02,14,7.20
2021,04,16,02,15,7.20
2021,04,16,02,16,7.20
2021,04,16,02,17,7.10
2021,04,16,02,18,7.10
2021,04,16,02,19,7.10
2021,04,16,02,20,7.10
2021,04,16,02,21,7.10
2021,04,16,02,22,7.10
2021,04,16,02,23,7.10
2021,04,16,02,24,7.10
2021,04,16,02,25,7.10
2021,04,16,02,26,7.10
2021,04,16,02,27,7.10
2021,04,16,02,28,7.10
2021,04,16,02,29,7.10
2021,04,16,02,30,7.10
2021,04,16,02,31,7.10
2021,04,16,02,32,7.00
2021,04,16,02,33,7.00
2021,04,16,02,34,7.00
2021,04,16,02,35,7.00
2021,04,16,02,36,7.00
2021,04,16,02,37,7.00
2021,04,16,02,38,7.00
2021,04,16,02,39,7.00
2021,04,16,02,40,6.90
2021,04,16,02,41,6.90
2021,04,16,02,42,6.90
2021,04,16,02,43,6.90
2021,04,16,02,44,6.90
2021,04,16,02,45,6.90
2021,04,16,02,46,6.90
2021,04,16,02,47,6.90
2021,04,16,02,48,6.90
2021,04,16,02,49,6.90
2021,04,16,02,50,6.90
2021,04,16,02,51,6.90
2021,04,16,02,52,6.90
2021,04,16,02,53,6.90
2021,04,16,02,54,6.90
2021,04,16,02,55,6.90
2021,04,16,02,56,6.90
2021,04,16,02,57,6.90
2021,04,16,02,58,6.90
2021,04,16,02,59,6.80
2021,04,16,03,00,6.80
2021,04,16,03,01,6.80
2021,04,16,03,02,6.80
2021,04,16,03,03,6.80
2021,04,16,03,04,6.80
2021,04,16,03,05,6.70
2021,04,16,03,06,6.70
2021,04,16,03,07,6.70
2021,04,16,03,08,6.70
2021,04,16,03,09,6.70
2021,04,16,03,10,6.70
2021,04,16,03,11,6.70
2021,04,16,03,12,6.70
2021,04,16,03,13,6.60
2021,04,16,03,14,6.60
2021,04,16,03,15,6.60
2021,04,16,03,16,6.60
2021,04,16,03,17,6.60
2021,04,16,03,18,6.60
2021,04,16,03,19,6.60
2021,04,16,03,20,6.60
2021,04,16,03,21,6.50
2021,04,16,03,22,6.50
2021,04,16,03,23,6.50
2021,04,16,03,24,6.50
2021,04,16,03,25,6.50
2021,04,16,03,26,6.50
2021,04,16,03,27,6.40
2021,04,16,03,28,6.40
2021,04,16,03,29,6.40
2021,04,16,03,30,6.40
2021,04,16,03,31,6.40
2021,04,16,03,32,6.40
2021,04,16,03,33,6.40
2021,04,16,03,34,6.40
2021,04,16,03,35,6.30
2021,04,16,03,36,6.30
2021,04,16,03,37,6.30
2021,04,16,03,38,6.30
2021,04,16,03,39,6.30
2021,04,16,03,40,6.30
2021,04,16,03,41,6.30
2021,04,16,03,42,6.30
2021,04,16,03,43,6.30
2021,04,16,03,44,6.30
2021,04,16,03,45,6.30
2021,04,16,03,46,6.30
2021,04,16,03,47,6.30
2021,04,16,03,48,6.30
2021,04,16,03,49,6.30
2021,04,16,03,50,6.20
2021,04,16,03,51,6.20
2021,04,16,03,52,6.20
2021,04,16,03,53,6.20
2021,04,16,03,54,6.20
2021,04,16,03,55,6.20
2021,04,16,03,56,6.20
2021,04,16,03,57,6.20
2021,04,16,03,58,6.20
2021,04,16,03,59,6.20
2021,04,16,04,00,6.20
2021,04,16,04,01,6.20
2021,04,16,04,02,6.20
2021,04,16,04,03,6.10
2021,04,16,04,04,6.10
2021,04,16,04,05,6.10
2021,04,16,04,06,6.10
2021,04,16,04,07,6.10
2021,04,16,04,08,6.10
2021,04,16,04,09,6.10
2021,04,16,04,10,6.10
2021,04,16,04,11,6.10
2021,04,16,04,12,6.10
2021,04,16,04,13,6.10
2021,04,16,04,14,6.10
2021,04,16,04,15,6.10
2021,04,16,04,16,6.10
2021,04,16,04,17,6.10
2021,04,16,04,18,6.10
2021,04,16,04,19,6.10
2021,04,16,04,20,6.10
2021,04,16,04,21,6.10
2021,04,16,04,22,6.00
2021,04,16,04,23,6.00
2021,04,16,04,24,6.00
2021,04,16,04,25,6.00
2021,04,16,04,26,6.00
2021,04,16,04,27,6.00
2021,04,16,04,28,6.00
2021,04,16,04,29,6.00
2021,04,16,04,30,6.00
2021,04,16,04,31,6.00
2021,04,16,04,32,6.00
2021,04,16,04,33,6.00
2021,04,16,04,34,6.00
2021,04,16,04,35,6.00
2021,04,16,04,36,5.90
2021,04,16,04,37,5.90
2021,04,16,04,38,5.90
2021,04,16,04,39,5.90
2021,04,16,04,40,5.90
2021,04,16,04,41,5.90
2021,04,16,04,42,5.90
2021,04,16,04,43,5.80
2021,04,16,04,44,5.80
2021,04,16,04,45,5.80
2021,04,16,04,46,5.80
2021,04,16,04,47,5.80
2021,04,16,04,48,5.80
2021,04,16,04,49,5.80
2021,04,16,04,50,5.80
2021,04,16,04,51,5.80
2021,04,16,04,52,5.80
2021,04,16,04,53,5.70
2021,04,16,04,54,5.70
2021,04,16,04,55,5.70
2021,04,16,04,56,5.70
2021,04,16,04,57,5.70
2021,04,16,04,58,5.70
2021,04,16,04,59,5.70
2021,04,16,05,00,5.70
2021,04,16,05,01,5.70
2021,04,16,05,02,5.70
2021,04,16,05,03,5.70
2021,04,16,05,04,5.70
2021,04,16,05,05,5.70
2021,04,16,05,06,5.70
2021,04,16,05,07,5.70
2021,04,16,05,08,5.60
2021,04,16,05,09,5.60
2021,04,16,05,10,5.60
2021,04,16,05,11,5.60
2021,04,16,05,12,5.60
2021,04,16,05,13,5.60
2021,04,16,05,14,5.60
2021,04,16,05,15,5.60
2021,04,16,05,16,5.60
2021,04,16,05,17,5.60
2021,04,16,05,18,5.60
2021,04,16,05,19,5.60
2021,04,16,05,20,5.60
2021,04,16,05,21,5.60
2021,04,16,05,22,5.50
2021,04,16,05,23,5.50
2021,04,16,05,24,5.50
2021,04,16,05,25,5.50
2021,04,16,05,26,5.50
2021,04,16,05,27,5.50
2021,04,16,05,28,5.50
2021,04,16,05,29,5.40
2021,04,16,05,30,5.40
2021,04,16,05,31,5.40
2021,04,16,05,32,5.40
2021,04,16,05,33,5.40
2021,04,16,05,34,5.40
2021,04,16,05,35,5.40
2021,04,16,05,36,5.40
2021,04,16,05,37,5.40
2021,04,16,05,38,5.40
2021,04,16,05,39,5.30
2021,04,16,05,40,5.30
2021,04,16,05,41,5.30
2021,04,16,05,42,5.30
2021,04,16,05,43,5.30
2021,04,16,05,44,5.30
2021,04,16,05,45,5.30
2021,04,16,05,46,5.30
2021,04,16,05,47,5.30
2021,04,16,05,48,5.20
2021,04,16,05,49,5.20
2021,04,16,05,50,5.20
2021,04,16,05,51,5.20
2021,04,16,05,52,5.20
2021,04,16,05,53,5.20
2021,04,16,05,54,5.20
2021,04,16,05,55,5.20
2021,04,16,05,56,5.20
2021,04,16,05,57,5.10
2021,04,16,05,58,5.10
2021,04,16,05,59,5.10
2021,04,16,06,00,5.10
2021,04,16,06,01,5.10
2021,04,16,06,02,5.10
2021,04,16,06,03,5.10
2021,04,16,06,04,5.10
2021,04,16,06,05,5.10
2021,04,16,06,06,5.10
2021,04,16,06,07,5.10
2021,04,16,06,08,5.10
2021,04,16,06,09,5.00
2021,04,16,06,10,5.00
2021,04,16,06,11,5.00
2021,04,16,06,12,5.00
2021,04,16,06,13,5.00
2021,04,16,06,14,5.00
2021,04,16,06,15,5.00
2021,04,16,06,16,4.90
2021,04,16,06,17,4.90
2021,04,16,06,18,4.90
2021,04,16,06,19,4.90
2021,04,16,06,20,4.90
2021,04,16,06,21,4.90
2021,04,16,06,22,4.90
2021,04,16,06,23,4.90
2021,04,16,06,24,4.90
2021,04,16,06,25,4.90
2021,04,16,06,26,4.80
2021,04,16,06,27,4.80
2021,04,16,06,28,4.80
2021,04,16,06,29,4.80
2021,04,16,06,30,4.80
2021,04,16,06,31,4.80
2021,04,16,06,32,4.80
2021,04,16,06,33,4.80
2021,04,16,06,34,4.80
2021,04,16,06,35,4.80
2021,04,16,06,36,4.80
2021,04,16,06,37,4.80
2021,04,16,06,38,4.70
2021,04,16,06,39,4.70
2021,04,16,06,40,4.70
2021,04,16,06,41,4.70
2021,04,16,06,42,4.80
2021,04,16,06,43,4.80
2021,04,16,06,44,4.80
2021,04,16,06,45,4.80
2021,04,16,06,46,4.70
2021,04,16,06,47,4.80
2021,04,16,06,48,4.70
2021,04,16,06,49,4.70
2021,04,16,06,50,4.70
2021,04,16,06,51,4.70
2021,04,16,06,52,4.70
2021,04,16,06,53,4.70
2021,04,16,06,54,4.70
2021,04,16,06,55,4.70
2021,04,16,06,56,4.70
2021,04,16,06,57,4.70
2021,04,16,06,58,4.70
2021,04,16,06,59,4.70
2021,04,16,07,00,4.70
2021,04,16,07,01,4.70
2021,04,16,07,02,4.70
2021,04,16,07,03,4.70
2021,04,16,07,04,4.70
2021,04,16,07,05,4.70
2021,04,16,07,06,4.70
2021,04,16,07,07,4.70
2021,04,16,07,08,4.70
2021,04,16,07,09,4.70
2021,04,16,07,10,4.70
2021,04,16,07,11,4.70
2021,04,16,07,12,4.70
2021,04,16,07,13,4.70
2021,04,16,07,14,4.70
2021,04,16,07,15,4.70
2021,04,16,07,16,4.70
2021,04,16,07,17,4.70
2021,04,16,07,18,4.70
2021,04,16,07,19,4.70
2021,04,16,07,20,4.70
2021,04,16,07,21,4.70
2021,04,16,07,22,4.70
2021,04,16,07,23,4.70
2021,04,16,07,24,4.70
2021,04,16,07,25,4.70
2021,04,16,07,26,4.70
2021,04,16,07,27,4.70
2021,04,16,07,28,4.70
2021,04,16,07,29,4.70
2021,04,16,07,30,4.80
2021,04,16,07,31,4.80
2021,04,16,07,32,4.80
2021,04,16,07,33,4.80
2021,04,16,07,34,4.80
2021,04,16,07,35,4.80
2021,04,16,07,36,4.80
2021,04,16,07,37,4.80
2021,04,16,07,38,4.80
2021,04,16,07,39,4.80
2021,04,16,07,40,4.80
2021,04,16,07,41,4.80
2021,04,16,07,42,4.80
2021,04,16,07,43,4.80
2021,04,16,07,44,4.80
2021,04,16,07,45,4.80
2021,04,16,07,46,4.80
2021,04,16,07,47,4.80
2021,04,16,07,48,4.80
2021,04,16,07,49,4.80
2021,04,16,07,50,4.80
2021,04,16,07,51,4.80
2021,04,16,07,52,4.80
2021,04,16,07,53,4.90
2021,04,16,07,54,4.90
2021,04,16,07,55,4.90
2021,04,16,07,56,4.90
2021,04,16,07,57,4.90
2021,04,16,07,58,4.90
2021,04,16,07,59,4.90
2021,04,16,08,00,4.90
2021,04,16,08,01,5.00
2021,04,16,08,02,5.00
2021,04,16,08,03,5.00
2021,04,16,08,04,5.00
2021,04,16,08,05,5.00
2021,04,16,08,06,5.10
2021,04,16,08,07,5.10
2021,04,16,08,08,5.10
2021,04,16,08,09,5.10
2021,04,16,08,10,5.10
2021,04,16,08,11,5.10
2021,04,16,08,12,5.10
2021,04,16,08,13,5.10
2021,04,16,08,14,5.10
2021,04,16,08,15,5.10
2021,04,16,08,16,5.10
2021,04,16,08,17,5.20
2021,04,16,08,18,5.20
2021,04,16,08,19,5.20
2021,04,16,08,20,5.20
2021,04,16,08,21,5.20
2021,04,16,08,22,5.30
2021,04,16,08,23,5.30
2021,04,16,08,24,5.30
2021,04,16,08,25,5.30
2021,04,16,08,26,5.30
2021,04,16,08,27,5.30
2021,04,16,08,28,5.40
2021,04,16,08,29,5.40
2021,04,16,08,30,5.40
2021,04,16,08,31,5.40
2021,04,16,08,32,5.50
2021,04,16,08,33,5.50
2021,04,16,08,34,5.60
2021,04,16,08,35,5.60
2021,04,16,08,36,5.60
2021,04,16,08,37,5.60
2021,04,16,08,38,5.70
2021,04,16,08,39,5.70
2021,04,16,08,40,5.70
2021,04,16,08,41,5.70
2021,04,16,08,42,5.80
2021,04,16,08,43,5.80
2021,04,16,08,44,5.80
2021,04,16,08,45,5.90
2021,04,16,08,46,5.90
2021,04,16,08,47,5.90
2021,04,16,08,48,6.00
2021,04,16,08,49,6.10
2021,04,16,08,50,6.10
2021,04,16,08,51,6.20
2021,04,16,08,52,6.20
2021,04,16,08,53,6.20
2021,04,16,08,54,6.30
2021,04,16,08,55,6.30
2021,04,16,08,56,6.40
2021,04,16,08,57,6.40
2021,04,16,08,58,6.50
2021,04,16,08,59,6.50
2021,04,16,09,00,6.60
2021,04,16,09,01,6.60
2021,04,16,09,02,6.70
2021,04,16,09,03,6.70
2021,04,16,09,04,6.70
2021,04,16,09,05,6.80
2021,04,16,09,06,6.80
2021,04,16,09,07,6.80
2021,04,16,09,08,6.90
2021,04,16,09,09,6.90
2021,04,16,09,10,7.00
2021,04,16,09,11,7.10
2021,04,16,09,12,7.10
2021,04,16,09,13,7.20
2021,04,16,09,14,7.20
2021,04,16,09,15,7.20
2021,04,16,09,16,7.30
2021,04,16,09,17,7.40
2021,04,16,09,18,7.40
2021,04,16,09,19,7.50
2021,04,16,09,20,7.60
2021,04,16,09,21,7.60
2021,04,16,09,22,7.70
2021,04,16,09,23,7.70
2021,04,16,09,24,7.80
2021,04,16,09,25,7.80
2021,04,16,09,26,7.90
2021,04,16,09,27,8.00
2021,04,16,09,28,8.00
2021,04,16,09,29,8.10
2021,04,16,09,30,8.20
2021,04,16,09,31,8.20
2021,04,16,09,32,8.30
2021,04,16,09,33,8.30
2021,04,16,09,34,8.40
2021,04,16,09,35,8.40
2021,04,16,09,36,8.50
2021,04,16,09,37,8.50
2021,04,16,09,38,8.60
2021,04,16,09,39,8.60
2021,04,16,09,40,8.70
2021,04,16,09,41,8.70
2021,04,16,09,42,8.80
2021,04,16,09,43,8.80
2021,04,16,09,44,8.90
2021,04,16,09,45,8.90
2021,04,16,09,46,9.00
2021,04,16,09,47,9.10
2021,04,16,09,48,9.10
2021,04,16,09,49,9.20
2021,04,16,09,50,9.20
2021,04,16,09,51,9.30
2021,04,16,09,52,9.40
2021,04,16,09,53,9.50
2021,04,16,09,54,9.60
2021,04,16,09,55,9.60
2021,04,16,09,56,9.70
2021,04,16,09,57,9.80
2021,04,16,09,58,9.90
2021,04,16,09,59,10.00
2021,04,16,10,00,10.10
2021,04,16,10,01,10.20
2021,04,16,10,02,10.20
2021,04,16,10,03,10.30
2021,04,16,10,04,10.40
2021,04,16,10,05,10.50
2021,04,16,10,06,10.60
2021,04,16,10,07,10.70
2021,04,16,10,08,10.90
2021,04,16,10,09,11.00
2021,04,16,10,10,11.10
2021,04,16,10,11,11.30
2021,04,16,10,12,11.40
2021,04,16,10,13,11.60
2021,04,16,10,14,11.80
2021,04,16,10,15,12.00
2021,04,16,10,16,12.20
2021,04,16,10,17,12.30
2021,04,16,10,18,12.50
2021,04,16,10,19,12.60
2021,04,16,10,20,12.80
2021,04,16,10,21,12.90
2021,04,16,10,22,13.00
2021,04,16,10,23,13.20
2021,04,16,10,24,13.30
2021,04,16,10,25,13.40
2021,04,16,10,26,13.50
2021,04,16,10,27,13.60
2021,04,16,10,28,13.70
2021,04,16,10,29,13.80
2021,04,16,10,30,13.90
2021,04,16,10,31,14.00
2021,04,16,10,32,14.00
2021,04,16,10,33,14.10
2021,04,16,10,34,14.20
2021,04,16,10,35,14.20
2021,04,16,10,36,14.20
2021,04,16,10,37,14.30
2021,04,16,10,38,14.30
2021,04,16,10,39,14.30
2021,04,16,10,40,14.30
2021,04,16,10,41,14.40
2021,04,16,10,42,14.40
2021,04,16,10,43,14.40
2021,04,16,10,44,14.40
2021,04,16,10,45,14.40
2021,04,16,10,46,14.50
2021,04,16,10,47,14.50
2021,04,16,10,48,14.60
2021,04,16,10,49,14.60
2021,04,16,10,50,14.60
2021,04,16,10,51,14.60
2021,04,16,10,52,14.70
2021,04,16,10,53,14.70
2021,04,16,10,54,14.80
2021,04,16,10,55,15.00
2021,04,16,10,56,15.00
2021,04,16,10,57,15.00
2021,04,16,10,58,15.00
2021,04,16,10,59,15.10
2021,04,16,11,00,15.20
2021,04,16,11,01,15.30
2021,04,16,11,02,15.40
2021,04,16,11,03,15.50
2021,04,16,11,04,15.60
2021,04,16,11,05,15.60
2021,04,16,11,06,15.70
2021,04,16,11,07,15.70
2021,04,16,11,08,15.70
2021,04,16,11,09,15.80
2021,04,16,11,10,15.80
2021,04,16,11,11,15.80
2021,04,16,11,12,15.80
2021,04,16,11,13,15.80
2021,04,16,11,14,15.90
2021,04,16,11,15,15.90
2021,04,16,11,16,16.00
2021,04,16,11,17,16.00
2021,04,16,11,18,16.10
2021,04,16,11,19,16.10
2021,04,16,11,20,16.20
2021,04,16,11,21,16.30
2021,04,16,11,22,16.30
2021,04,16,11,23,16.40
2021,04,16,11,24,16.40
2021,04,16,11,25,16.40
2021,04,16,11,26,16.40
2021,04,16,11,27,16.40
2021,04,16,11,28,16.40
2021,04,16,11,29,16.40
2021,04,16,11,30,16.50
2021,04,16,11,31,16.50
2021,04,16,11,32,16.50
2021,04,16,11,33,16.50
2021,04,16,11,34,16.60
2021,04,16,11,35,16.60
2021,04,16,11,36,16.60
2021,04,16,11,37,16.60
2021,04,16,11,38,16.60
2021,04,16,11,39,16.60
2021,04,16,11,40,16.60
2021,04,16,11,41,16.60
2021,04,16,11,42,16.60
2021,04,16,11,43,16.70
2021,04,16,11,44,16.70
2021,04,16,11,45,16.70
2021,04,16,11,46,16.80
2021,04,16,11,47,16.80
2021,04,16,11,48,16.80
2021,04,16,11,49,16.80
2021,04,16,11,50,16.80
2021,04,16,11,51,16.90
2021,04,16,11,52,16.90
2021,04,16,11,53,16.90
2021,04,16,11,54,17.00
2021,04,16,11,55,17.00
2021,04,16,11,56,17.00
2021,04,16,11,57,17.10
2021,04,16,11,58,17.20
2021,04,16,11,59,17.30
2021,04,16,12,00,17.30
2021,04,16,12,01,17.40
2021,04,16,12,02,17.40
2021,04,16,12,03,17.40
2021,04,16,12,04,17.50
2021,04,16,12,05,17.50
2021,04,16,12,06,17.50
2021,04,16,12,07,17.60
2021,04,16,12,08,17.70
2021,04,16,12,09,17.70
2021,04,16,12,10,17.80
2021,04,16,12,11,17.80
2021,04,16,12,12,17.80
2021,04,16,12,13,17.90
2021,04,16,12,14,17.90
2021,04,16,12,15,17.90
2021,04,16,12,16,17.90
2021,04,16,12,17,17.90
2021,04,16,12,18,17.90
2021,04,16,12,19,17.90
2021,04,16,12,20,17.80
2021,04,16,12,21,17.80
2021,04,16,12,22,17.80
2021,04,16,12,23,17.80
2021,04,16,12,24,17.80
2021,04,16,12,25,17.90
2021,04,16,12,26,17.90
2021,04,16,12,27,17.90
2021,04,16,12,28,18.00
2021,04,16,12,29,18.00
2021,04,16,12,30,18.00
2021,04,16,12,31,18.10
2021,04,16,12,32,18.00
2021,04,16,12,33,18.00
2021,04,16,12,34,17.90
2021,04,16,12,35,17.90
2021,04,16,12,36,17.90
2021,04,16,12,37,17.90
2021,04,16,12,38,17.90
2021,04,16,12,39,18.00
2021,04,16,12,40,18.00
2021,04,16,12,41,18.00
2021,04,16,12,42,18.00
2021,04,16,12,43,18.10
2021,04,16,12,44,18.10
2021,04,16,12,45,18.10
2021,04,16,12,46,18.20
2021,04,16,12,47,18.20
2021,04,16,12,48,18.20
2021,04,16,12,49,18.30
2021,04,16,12,50,18.30
2021,04,16,12,51,18.40
2021,04,16,12,52,18.50
2021,04,16,12,53,18.60
2021,04,16,12,54,18.60
2021,04,16,12,55,18.70
2021,04,16,12,56,18.70
2021,04,16,12,57,18.70
2021,04,16,12,58,18.70
2021,04,16,12,59,18.80
2021,04,16,13,00,18.80
2021,04,16,13,01,18.80
2021,04,16,13,02,18.80
2021,04,16,13,03,18.90
2021,04,16,13,04,18.90
2021,04,16,13,05,19.00
2021,04,16,13,06,19.00
2021,04,16,13,07,19.00
2021,04,16,13,08,19.00
2021,04,16,13,09,19.10
2021,04,16,13,10,19.10
2021,04,16,13,11,19.20
2021,04,16,13,12,19.20
2021,04,16,13,13,19.30
2021,04,16,13,14,19.30
2021,04,16,13,15,19.30
2021,04,16,13,16,19.30
2021,04,16,13,17,19.30
2021,04,16,13,18,19.40
2021,04,16,13,19,19.40
2021,04,16,13,20,19.40
2021,04,16,13,21,19.50
2021,04,16,13,22,19.50
2021,04,16,13,23,19.60
2021,04,16,13,24,19.70
2021,04,16,13,25,19.80
2021,04,16,13,26,19.80
2021,04,16,13,27,19.80
2021,04,16,13,28,19.90
2021,04,16,13,29,19.90
2021,04,16,13,30,19.90
2021,04,16,13,31,19.90
2021,04,16,13,32,20.00
2021,04,16,13,33,19.90
2021,04,16,13,34,20.00
2021,04,16,13,35,20.00
2021,04,16,13,36,20.00
2021,04,16,13,37,20.00
2021,04,16,13,38,20.00
2021,04,16,13,39,20.10
2021,04,16,13,40,20.10
2021,04,16,13,41,20.20
2021,04,16,13,42,20.20
2021,04,16,13,43,20.20
2021,04,16,13,44,20.30
2021,04,16,13,45,20.40
2021,04,16,13,46,20.40
2021,04,16,13,47,20.50
2021,04,16,13,48,20.50
2021,04,16,13,49,20.60
2021,04,16,13,50,20.60
2021,04,16,13,51,20.60
2021,04,16,13,52,20.70
2021,04,16,13,53,20.60
2021,04,16,13,54,20.60
2021,04,16,13,55,20.60
2021,04,16,13,56,20.60
2021,04,16,13,57,20.60
2021,04,16,13,58,20.70
2021,04,16,13,59,20.70
2021,04,16,14,00,20.70
2021,04,16,14,01,20.80
2021,04,16,14,02,20.80
2021,04,16,14,03,20.80
2021,04,16,14,04,20.80
2021,04,16,14,05,20.80
2021,04,16,14,06,20.70
2021,04,16,14,07,20.70
2021,04,16,14,08,20.60
2021,04,16,14,09,20.60
2021,04,16,14,10,20.50
2021,04,16,14,11,20.50
2021,04,16,14,12,20.50
2021,04,16,14,13,20.50
2021,04,16,14,14,20.40
2021,04,16,14,15,20.50
2021,04,16,14,16,20.50
2021,04,16,14,17,20.50
2021,04,16,14,18,20.60
2021,04,16,14,19,20.60
2021,04,16,14,20,20.70
2021,04,16,14,21,20.70
2021,04,16,14,22,20.70
2021,04,16,14,23,20.80
2021,04,16,14,24,20.80
2021,04,16,14,25,20.90
2021,04,16,14,26,20.90
2021,04,16,14,27,21.00
2021,04,16,14,28,21.00
2021,04,16,14,29,21.10
2021,04,16,14,30,21.10
2021,04,16,14,31,21.10
2021,04,16,14,32,21.20
2021,04,16,14,33,21.20
2021,04,16,14,34,21.20
2021,04,16,14,35,21.30
2021,04,16,14,36,21.30
2021,04,16,14,37,21.30
2021,04,16,14,38,21.30
2021,04,16,14,39,21.30
2021,04,16,14,40,21.30
2021,04,16,14,41,21.30
2021,04,16,14,42,21.30
2021,04,16,14,43,21.30
2021,04,16,14,44,21.30
2021,04,16,14,45,21.30
2021,04,16,14,46,21.30
2021,04,16,14,47,21.30
2021,04,16,14,48,21.30
2021,04,16,14,49,21.40
2021,04,16,14,50,21.40
2021,04,16,14,51,21.50
2021,04,16,14,52,21.60
2021,04,16,14,53,21.60
2021,04,16,14,54,21.70
2021,04,16,14,55,21.80
2021,04,16,14,56,21.80
2021,04,16,14,57,21.80
2021,04,16,14,58,21.80
2021,04,16,14,59,21.80
2021,04,16,15,00,21.80
2021,04,16,15,01,21.80
2021,04,16,15,02,21.80
2021,04,16,15,03,21.80
2021,04,16,15,04,21.80
2021,04,16,15,05,21.80
2021,04,16,15,06,21.80
2021,04,16,15,07,21.80
2021,04,16,15,08,21.80
2021,04,16,15,09,21.90
2021,04,16,15,10,22.00
2021,04,16,15,11,22.10
2021,04,16,15,12,22.10
2021,04,16,15,13,22.20
2021,04,16,15,14,22.20
2021,04,16,15,15,22.20
2021,04,16,15,16,22.20
2021,04,16,15,17,22.20
2021,04,16,15,18,22.30
2021,04,16,15,19,22.30
2021,04,16,15,20,22.30
2021,04,16,15,21,22.40
2021,04,16,15,22,22.40
2021,04,16,15,23,22.50
2021,04,16,15,24,22.50
2021,04,16,15,25,22.50
2021,04,16,15,26,22.30
2021,04,16,15,27,22.20
2021,04,16,15,28,22.10
2021,04,16,15,29,22.10
2021,04,16,15,30,22.10
2021,04,16,15,31,22.10
2021,04,16,15,32,22.00
2021,04,16,15,33,22.00
2021,04,16,15,34,22.00
2021,04,16,15,35,22.10
2021,04,16,15,36,22.10
2021,04,16,15,37,22.20
2021,04,16,15,38,22.30
2021,04,16,15,39,22.40
2021,04,16,15,40,22.40
2021,04,16,15,41,22.50
2021,04,16,15,42,22.50
2021,04,16,15,43,22.40
2021,04,16,15,44,22.40
2021,04,16,15,45,22.30
2021,04,16,15,46,22.20
2021,04,16,15,47,22.10
2021,04,16,15,48,22.10
2021,04,16,15,49,22.10
2021,04,16,15,50,22.00
2021,04,16,15,51,22.00
2021,04,16,15,52,22.00
2021,04,16,15,53,22.00
2021,04,16,15,54,22.00
2021,04,16,15,55,22.10
2021,04,16,15,56,22.20
2021,04,16,15,57,22.20
2021,04,16,15,58,22.30
2021,04,16,15,59,22.30
2021,04,16,16,00,22.40
2021,04,16,16,01,22.40
2021,04,16,16,02,22.40
2021,04,16,16,03,22.50
2021,04,16,16,04,22.60
2021,04,16,16,05,22.70
2021,04,16,16,06,22.70
2021,04,16,16,07,22.80
2021,04,16,16,08,22.80
2021,04,16,16,09,22.90
2021,04,16,16,10,22.90
2021,04,16,16,11,23.00
2021,04,16,16,12,23.00
2021,04,16,16,13,23.10
2021,04,16,16,14,23.10
2021,04,16,16,15,23.10
2021,04,16,16,16,23.20
2021,04,16,16,17,23.20
2021,04,16,16,18,23.30
2021,04,16,16,19,23.40
2021,04,16,16,20,23.40
2021,04,16,16,21,23.50
2021,04,16,16,22,23.60
2021,04,16,16,23,23.70
2021,04,16,16,24,23.70
2021,04,16,16,25,23.80
2021,04,16,16,26,23.90
2021,04,16,16,27,23.90
2021,04,16,16,28,23.90
2021,04,16,16,29,24.00
2021,04,16,16,30,23.90
2021,04,16,16,31,23.90
2021,04,16,16,32,23.90
2021,04,16,16,33,23.90
2021,04,16,16,34,23.80
2021,04,16,16,35,23.80
2021,04,16,16,36,23.80
2021,04,16,16,37,23.80
2021,04,16,16,38,23.80
2021,04,16,16,39,23.90
2021,04,16,16,40,23.90
2021,04,16,16,41,23.90
2021,04,16,16,42,24.00
2021,04,16,16,43,24.00
2021,04,16,16,44,24.10
2021,04,16,16,45,24.10
2021,04,16,16,46,24.10
2021,04,16,16,47,24.10
2021,04,16,16,48,24.00
2021,04,16,16,49,24.00
2021,04,16,16,50,23.90
2021,04,16,16,51,23.90
2021,04,16,16,52,23.80
2021,04,16,16,53,23.70
2021,04,16,16,54,23.60
2021,04,16,16,55,23.50
2021,04,16,16,56,23.40
2021,04,16,16,57,23.40
2021,04,16,16,58,23.40
2021,04,16,16,59,23.40
2021,04,16,17,00,23.40
2021,04,16,17,01,23.40
2021,04,16,17,02,23.40
2021,04,16,17,03,23.40
2021,04,16,17,04,23.30
2021,04,16,17,05,23.30
2021,04,16,17,06,23.30
2021,04,16,17,07,23.20
2021,04,16,17,08,23.20
2021,04,16,17,09,23.20
2021,04,16,17,10,23.10
2021,04,16,17,11,23.10
2021,04,16,17,12,23.10
2021,04,16,17,13,23.10
2021,04,16,17,14,23.10
2021,04,16,17,15,23.10
2021,04,16,17,16,23.10
2021,04,16,17,17,23.20
2021,04,16,17,18,23.20
2021,04,16,17,19,23.20
2021,04,16,17,20,23.30
2021,04,16,17,21,23.30
2021,04,16,17,22,23.30
2021,04,16,17,23,23.30
2021,04,16,17,24,23.30
2021,04,16,17,25,23.30
2021,04,16,17,26,23.30
2021,04,16,17,27,23.20
2021,04,16,17,28,23.20
2021,04,16,17,29,23.20
2021,04,16,17,30,23.20
2021,04,16,17,31,23.20
2021,04,16,17,32,23.20
2021,04,16,17,33,23.20
2021,04,16,17,34,23.20
2021,04,16,17,35,23.20
2021,04,16,17,36,23.20
2021,04,16,17,37,23.30
2021,04,16,17,38,23.30
2021,04,16,17,39,23.30
2021,04,16,17,40,23.30
2021,04,16,17,41,23.30
2021,04,16,17,42,23.30
2021,04,16,17,43,23.30
2021,04,16,17,44,23.30
2021,04,16,17,45,23.30